Location: Mahannah Oil Field
(37.4664°N, 96.6003°W)
Time: 15:00:01
(UTC+00:00)

Vanguard 2 Rocket - Pass Details

Date: 23 January 2021
Orbit: 554 x 3325 km, 32.9° (Epoch: 06 March)

Event Time Altitude Azimuth Distance (km) Brightness Sun altitude
Rises 23:54:33 0° 260° (W) 5,657 13.1 -3.5°
Reaches altitude 10° 23:59:01 10° 258° (WSW) 4,190 12.1 -4.3°
Maximum altitude 00:09:00 62° 181° (S) 1,282 7.8 -6.2°
Drops below altitude 10° 00:14:40 10° 101° (E) 2,444 8.6 -7.2°
Enters shadow 00:15:36 - 99° (E) 2,781 8.9 -7.4°
Sets 00:16:40 0° 97° (E) 3,182 - -7.6°
